Weather History for Auburn, IN

Change the Weather History Date:

Wednesday, April 24, 2013

  Actual Average (KFWA) Record (KFWA)
Temperature  
Mean Temperature 40 °F 53 °F  
Max Temperature 46 °F 65 °F 88 °F (1925)
Min Temperature 33 °F 42 °F 27 °F (1930)
Degree Days  
Heating Degree Days 26 12  
Month to date heating degree days 392  
Since 1 July heating degree days 5816  
Cooling Degree Days 0 0  
Month to date cooling degree days 0  
Year to date cooling degree days 0  
Moisture  
Dew Point 34 °F    
Average Humidity 81    
Maximum Humidity 93    
Minimum Humidity 49    
Precipitation  
Precipitation 0.20 in 0.11 in 0.97 in (1955)
Month to date precipitation 2.87  
Year to date precipitation 9.88  
Snow  
Snow 0.00 in 0.00 in 0.40 in (1968)
Month to date snowfall 1.0  
Since 1 July snowfall 33.5  
Snow Depth -    
Sea Level Pressure  
Sea Level Pressure 29.94 in    
Wind  
Wind Speed 10 mph (NW)    
Max Wind Speed 20 mph    
Max Gust Speed 26 mph    
Visibility 8 miles    
Events Rain , Snow    
T = Trace of Precipitation, MM = Missing Value Source: NWS Daily Summary

Daily Weather History Graph

Daily Weather History Graph

Search for Another Location

Airport:

Trip Planner

Search our weather history database for the weather conditions in past years. The results will help you decide how hot, cold, wet, or windy it might be!

Date:

Astronomy

Apr. 24, 2013 Rise Set
Actual Time 6:46 AM EDT 8:30 PM EDT
Civil Twilight 6:17 AM EDT 8:59 PM EDT
Nautical Twilight 5:41 AM EDT 9:35 PM EDT
Astronomical Twilight 5:03 AM EDT 10:14 PM EDT
Moon 7:32 PM EDT (4/24) 5:50 AM EDT (4/24)
Length of Visible Light 14h 42m
Length of Day
13h 43m
Waxing Gibbous, 98% of the Moon is Illuminated
Apr 24
Waxing Gibbous
Apr 25
Full
May 2
Last Quarter
May 9
New
May 18
First Quarter

Hourly Weather History & Observations

Time (EDT) Temp. Windchill Dew Point Humidity Pressure Visibility Wind Dir Wind Speed Gust Speed Precip Events Conditions
12:15 AM 46.4 °F 42.9 °F 44.6 °F 93% 29.81 in 7.0 mi North 6.9 mph - 0.05 in Rain Rain
12:35 AM 46.4 °F 42.4 °F 44.6 °F 93% 29.82 in 5.0 mi NW 8.1 mph - 0.10 in Rain Heavy Rain
12:55 AM 46.4 °F 41.5 °F 44.6 °F 93% 29.81 in 7.0 mi NNW 10.4 mph - 0.13 in Rain Rain
1:15 AM 46.4 °F 42.9 °F 44.6 °F 93% 29.80 in 10.0 mi NNW 6.9 mph - N/A Rain Light Rain
1:35 AM 46.4 °F 42.9 °F 44.6 °F 93% 29.80 in 10.0 mi NNW 6.9 mph - 0.01 in Rain Light Rain
1:55 AM 46.4 °F 42.4 °F 44.6 °F 93% 29.79 in 10.0 mi NNW 8.1 mph - 0.01 in Rain Rain
2:15 AM 46.4 °F 41.9 °F 42.8 °F 87% 29.80 in 10.0 mi NW 9.2 mph - N/A   Light Drizzle
2:35 AM 44.6 °F 40.2 °F 42.8 °F 93% 29.77 in 7.0 mi NNW 8.1 mph - 0.01 in Rain Rain
2:55 AM 44.6 °F 39.2 °F 42.8 °F 93% 29.78 in 7.0 mi NNW 10.4 mph - 0.01 in Rain Rain
3:15 AM 44.6 °F 39.7 °F 42.8 °F 93% 29.78 in 10.0 mi North 9.2 mph - 0.01 in Rain Rain
3:35 AM 44.6 °F 39.2 °F 42.8 °F 93% 29.79 in 10.0 mi NW 10.4 mph - 0.01 in Rain Rain
3:55 AM 44.6 °F 38.8 °F 42.8 °F 93% 29.78 in 7.0 mi NNW 11.5 mph - 0.03 in Rain Rain
4:15 AM 44.6 °F 39.2 °F 42.8 °F 93% 29.79 in 10.0 mi NNW 10.4 mph - N/A Rain Rain
4:55 AM 44.6 °F 38.1 °F 41.0 °F 87% 29.80 in 10.0 mi NNW 13.8 mph 18.4 mph 0.01 in Rain Light Rain
5:15 AM 42.8 °F 37.0 °F 41.0 °F 93% 29.81 in 10.0 mi NW 10.4 mph - N/A Rain Light Rain
5:35 AM 42.8 °F 37.0 °F 39.2 °F 87% 29.82 in 10.0 mi NW 10.4 mph 17.3 mph 0.01 in Rain Light Rain
5:55 AM 42.8 °F 38.0 °F 39.2 °F 87% 29.83 in 10.0 mi NW 8.1 mph - 0.01 in   Drizzle
6:15 AM 42.8 °F 38.6 °F 39.2 °F 87% 29.83 in 10.0 mi NNW 6.9 mph - N/A Rain Light Rain
6:35 AM 41.0 °F 33.9 °F 37.4 °F 87% 29.83 in 10.0 mi NNW 12.7 mph 18.4 mph N/A   Overcast
6:55 AM 41.0 °F 34.3 °F 37.4 °F 87% 29.85 in 7.0 mi NNW 11.5 mph 19.6 mph N/A   Drizzle
7:15 AM 41.0 °F 33.9 °F 37.4 °F 87% 29.85 in 10.0 mi NNW 12.7 mph 16.1 mph N/A Rain Rain
7:35 AM 39.2 °F 32.5 °F 35.6 °F 87% 29.85 in 10.0 mi North 10.4 mph - N/A   Drizzle
7:55 AM 37.4 °F 28.9 °F 35.6 °F 93% 29.87 in 7.0 mi NNW 13.8 mph 18.4 mph N/A   Drizzle
8:15 AM 37.4 °F 29.8 °F 33.8 °F 87% 29.86 in 7.0 mi North 11.5 mph 16.1 mph N/A   Drizzle
8:35 AM 37.4 °F 30.3 °F 35.6 °F 93% 29.87 in 7.0 mi North 10.4 mph - N/A   Light Drizzle
8:55 AM 37.4 °F 31.4 °F 35.6 °F 93% 29.86 in 4.0 mi North 8.1 mph 17.3 mph N/A   Drizzle
9:15 AM 37.4 °F 29.8 °F 35.6 °F 93% 29.88 in 4.0 mi NNW 11.5 mph - N/A Rain Rain
9:35 AM 37.4 °F 29.8 °F 33.8 °F 87% 29.86 in 10.0 mi North 11.5 mph - N/A Rain Light Rain
9:55 AM 37.4 °F 29.8 °F 33.8 °F 87% 29.87 in 3.0 mi NNW 11.5 mph - N/A Rain Light Rain
10:15 AM 35.6 °F 26.6 °F 33.8 °F 93% 29.88 in 3.0 mi NNW 13.8 mph 17.3 mph N/A Rain Light Rain
10:35 AM 35.6 °F 29.2 °F 33.8 °F 93% 29.89 in 2.5 mi NNW 8.1 mph - N/A Rain Rain
10:55 AM 35.6 °F 28.6 °F 33.8 °F 93% 29.90 in 2.0 mi NW 9.2 mph - N/A Rain Rain
11:15 AM 35.6 °F 28.6 °F 33.8 °F 93% 29.91 in 2.0 mi NW 9.2 mph - N/A   Drizzle
11:35 AM 35.6 °F 27.5 °F 33.8 °F 93% 29.91 in 1.2 mi NW 11.5 mph 17.3 mph N/A Rain Rain
11:55 AM 35.6 °F 28.0 °F 33.8 °F 93% 29.91 in 1.5 mi NW 10.4 mph 19.6 mph N/A   Light Drizzle
12:15 PM 35.6 °F 28.0 °F 33.8 °F 93% 29.92 in 0.8 mi WNW 10.4 mph - N/A Snow Light Snow
12:35 PM 35.6 °F 25.9 °F 33.8 °F 93% 29.94 in 7.0 mi WNW 16.1 mph 25.3 mph N/A Rain Light Rain
12:55 PM 37.4 °F 29.3 °F 33.8 °F 87% 29.95 in 4.0 mi WNW 12.7 mph - N/A Rain Light Rain
1:15 PM 37.4 °F 28.9 °F 33.8 °F 87% 29.95 in 5.0 mi WNW 13.8 mph 19.6 mph N/A   Drizzle
1:35 PM 35.6 °F 28.0 °F 33.8 °F 93% 29.95 in 5.0 mi NW 10.4 mph 18.4 mph N/A Rain Light Rain
1:55 PM 37.4 °F 29.3 °F 33.8 °F 87% 29.97 in 10.0 mi WNW 12.7 mph - N/A Rain Light Rain
2:15 PM 37.4 °F 29.8 °F 33.8 °F 87% 29.97 in 10.0 mi WNW 11.5 mph 19.6 mph N/A Rain Light Rain
2:35 PM 37.4 °F 28.5 °F 33.8 °F 87% 29.99 in 10.0 mi WNW 15.0 mph 20.7 mph N/A Rain Light Rain
2:55 PM 37.4 °F 29.3 °F 33.8 °F 87% 29.99 in 7.0 mi NW 12.7 mph 26.5 mph N/A Rain Light Rain
3:15 PM 39.2 °F 29.8 °F 35.6 °F 87% 30.00 in 5.0 mi WNW 18.4 mph 24.2 mph N/A Rain Light Rain
3:35 PM 39.2 °F 30.2 °F 33.8 °F 81% 30.01 in 7.0 mi WNW 17.3 mph 20.7 mph N/A Rain Light Rain
3:55 PM 41.0 °F 33.5 °F 32.0 °F 70% 30.01 in 10.0 mi West 13.8 mph 26.5 mph N/A   Overcast
4:15 PM 41.0 °F 32.5 °F 32.0 °F 70% 30.01 in 10.0 mi West 17.3 mph 25.3 mph N/A   Mostly Cloudy
4:35 PM 41.0 °F 33.1 °F 32.0 °F 70% 30.02 in 10.0 mi WNW 15.0 mph 23.0 mph N/A   Mostly Cloudy
4:55 PM 42.8 °F 34.8 °F 32.0 °F 66% 30.03 in 10.0 mi West 17.3 mph 21.9 mph N/A   Mostly Cloudy
5:15 PM 42.8 °F 35.4 °F 30.2 °F 61% 30.03 in 10.0 mi West 15.0 mph 25.3 mph N/A   Mostly Cloudy
5:35 PM 42.8 °F 35.1 °F 30.2 °F 61% 30.04 in 10.0 mi West 16.1 mph 23.0 mph N/A   Mostly Cloudy
5:55 PM 42.8 °F 35.1 °F 30.2 °F 61% 30.05 in 10.0 mi West 16.1 mph 21.9 mph N/A   Mostly Cloudy
6:15 PM 42.8 °F 34.8 °F 30.2 °F 61% 30.06 in 10.0 mi West 17.3 mph - N/A   Mostly Cloudy
6:35 PM 42.8 °F 34.3 °F 28.4 °F 57% 30.07 in 10.0 mi West 19.6 mph 24.2 mph N/A   Mostly Cloudy
6:55 PM 42.8 °F 35.1 °F 28.4 °F 57% 30.08 in 10.0 mi WNW 16.1 mph 23.0 mph N/A   Scattered Clouds
7:15 PM 42.8 °F 36.6 °F 26.6 °F 53% 30.08 in 10.0 mi West 11.5 mph - N/A   Clear
7:35 PM 41.0 °F 33.9 °F 26.6 °F 57% 30.09 in 10.0 mi West 12.7 mph 23.0 mph N/A   Clear
7:55 PM 41.0 °F 33.5 °F 23.0 °F 49% 30.10 in 10.0 mi WNW 13.8 mph - N/A   Clear
8:15 PM 41.0 °F 35.8 °F 23.0 °F 49% 30.11 in 10.0 mi West 8.1 mph - N/A   Clear
8:35 PM 37.4 °F 33.8 °F 23.0 °F 56% 30.12 in 10.0 mi West 4.6 mph - N/A   Clear
8:55 PM 37.4 °F 34.9 °F 24.8 °F 60% 30.13 in 10.0 mi WSW 3.5 mph - N/A   Clear
9:15 PM 37.4 °F 34.9 °F 23.0 °F 56% 30.15 in 10.0 mi SSW 3.5 mph - N/A   Clear
9:35 PM 35.6 °F - 26.6 °F 70% 30.15 in 10.0 mi Calm Calm - N/A   Clear
9:55 PM 37.4 °F 33.8 °F 23.0 °F 56% 30.16 in 10.0 mi SSW 4.6 mph - N/A   Clear
11:15 PM 35.6 °F - 28.4 °F 75% 30.18 in 10.0 mi Calm Calm - N/A   Clear
11:35 PM 33.8 °F - 28.4 °F 81% 30.17 in 10.0 mi Calm Calm - N/A   Clear
11:55 PM 35.6 °F 32.8 °F 28.4 °F 75% 30.17 in 10.0 mi SSW 3.5 mph - N/A   Clear